Regional Weather Roundup
Issued by NWS

Home | Current Version | Previous Version | Graphics & Text | Print | Product List | Glossary On
Versions: 1 2 3 4 5 6 7 8 9 10 11 12 13 14 15 16 17 18 19 20 21 22 23 24 25 26 27 28 29 30 31 32 33 34 35 36 37 38 39 40 41 42 43 44 45 46 47 48 49 50
452
ASUS43 KMKX 212300
RWRWI

WISCONSIN REGIONAL WEATHER ROUNDUP
NATIONAL WEATHER SERVICE MILWAUKEE/SULLIVAN WI
600 PM CDT SAT APR 21 2018

NOTE: "FAIR" INDICATES FEW OR NO CLOUDS BELOW 12,000 FEET WITH NO
SIGNIFICANT WEATHER AND/OR OBSTRUCTIONS TO VISIBILITY.

WIZ001-002-006>008-014>016-023>028-220000-
NORTHWEST WISCONSIN

CITY           SKY/WX    TMP DP  RH WIND       PRES   REMARKS
SUPERIOR ARPT  FAIR      59  20  21 NE7       30.32F
ASHLAND        FAIR      43  29  57 N10       30.33S
HAYWARD        FAIR      56  16  20 CALM      30.33F
SIREN          FAIR      57  16  19 CALM      30.33F
CUMBERLAND     FAIR      52   7  16 CALM      30.34F
RICE LAKE      FAIR      54  18  24 CALM      30.35F
CHETEK         FAIR      56  20  25 CALM      30.34F
LADYSMITH      FAIR      57  21  24 CALM      30.35S
EAU CLAIRE     NOT AVBL
MENOMONIE      FAIR      58  28  30 SW3       30.33S
NEW RICHMOND   FAIR      55  22  27 NE5       30.33F
OSCEOLA        FAIR      58  14  18 CALM      30.36S
$$

WIZ003>005-009-010-017-018-220000-
NORTH CENTRAL WISCONSIN

CITY           SKY/WX    TMP DP  RH WIND       PRES   REMARKS
MANITOWISH WTR FAIR      55  10  17 CALM      30.32S
ARBOR VITAE    FAIR      57   5  12 SE5       30.32S
WOODRUFF       FAIR      57   5  12 SE5       30.32S
RHINELANDER    FAIR      54  18  24 W5        30.33S
EAGLE RIVER    FAIR      56   5  13 W6        30.32S
LAND O LAKES   FAIR      58   5  12 SW3       30.33S
PHILLIPS       FAIR      55  14  19 SW3       30.33F
TOMAHAWK       FAIR      54  18  24 CALM      30.33F
MEDFORD        FAIR      52  27  38 CALM      30.34F
MERRILL          N/A     55  28  34 SW6       30.35F
$$

WIZ029-030-035-036-043>047-220000-
CENTRAL WISCONSIN

CITY           SKY/WX    TMP DP  RH WIND       PRES   REMARKS
WAUSAU         FAIR      55  26  32 W8        30.33F
MOSINEE        SUNNY     54  27  35 W6        30.35F
MARSHFIELD     FAIR      57  27  31 CALM      30.33F
STEVENS POINT  FAIR      53  25  33 SE8       30.35F
WAUPACA        FAIR      57  22  25 E6        30.35F
WAUTOMA        FAIR      57  26  30 N3        30.34F
WISC RAPIDS    FAIR      53  26  35 S7        30.35F
CAMP DOUGLAS   FAIR      55  31  39 SE3       30.34F
$$

WIZ011>013-019>022-031-037>040-048>050-220000-
NORTHEAST WISCONSIN

CITY           SKY/WX    TMP DP  RH WIND       PRES   REMARKS
ANTIGO         FAIR      53  29  39 W6        30.35S
SHAWANO        FAIR      58  21  23 S7        30.34F
OCONTO         FAIR      55  21  27 SW9       30.35S
STURGEON BAY   FAIR      52  25  35 S9        30.37F
GREEN BAY      FAIR      51  22  31 S7        30.37F
MANITOWOC      FAIR      51  24  34 SE6       30.38F
APPLETON       MOSUNNY   54  21  28 SE5       30.35F
CLINTONVILLE   FAIR      54  19  26 S8        30.35F
OSHKOSH        FAIR      53  30  41 S3        30.36F
$$

WIZ032>034-041-042-053>061-220000-
SOUTHWEST WISCONSIN

CITY           SKY/WX    TMP DP  RH WIND       PRES   REMARKS
LA CROSSE      CLOUDY    59  29  31 W5        30.34S
SPARTA         PTSUNNY   56  29  35 SE3       30.35S
VIROQUA        PTSUNNY   55  32  41 CALM      30.34S
BOSCOBEL       PTSUNNY   57  33  40 W3        30.34F
PRAIRIE DU CHI FAIR      57  30  35 S3        30.34S
PLATTEVILLE    FAIR      55  34  46 E8        30.34F
$$

WIZ056-057-062-063-064-067-068-220000-
SOUTH CENTRAL WISCONSIN

CITY           SKY/WX    TMP DP  RH WIND       PRES   REMARKS
REEDSBURG      FAIR      55  31  39 N3        30.34S
BARABOO/DELLS  CLOUDY    55  28  35 CALM      30.34F
LONE ROCK      FAIR      56  34  43 MISG      30.34S
MINERAL POINT  PTSUNNY   55  30  38 E3        30.34F
MADISON        PTSUNNY   54  30  40 E8        30.35S
MIDDLETON      FAIR      55  30  37 SE5       30.36S
WATERTOWN      CLOUDY    52  32  46 NE5       30.35F
MONROE         CLOUDY    54  32  43 E7        30.35R
JANESVILLE     CLOUDY    55  28  35 E6        30.36R
$$

WIZ051-052-058>065-066-070>072-220000-
SOUTHEAST WISCONSIN

CITY           SKY/WX    TMP DP  RH WIND       PRES   REMARKS
MILWAUKEE      PTSUNNY   50  18  28 SE8       30.37F
WAUKESHA       SUNNY     52  25  35 NE6       30.36F
MILWAUKEE/TIMM PTSUNNY   54  12  19 E6        30.36F
RACINE         FAIR      46  16  30 E6        30.38F
BURLINGTON     FAIR      53  24  31 NE7       30.36F
KENOSHA        FAIR      48  20  32 E9        30.36F
FOND DU LAC    FAIR      51  29  42 S3        30.36F
SHEBOYGAN      FAIR      56  30  37 VRB5      30.36F
WEST BEND      FAIR      52  21  30 N3        30.37F
JUNEAU         FAIR      51  31  46 CALM      30.37F
$$

LSZ147-162-220000-
LAKE SUPERIOR

STATION/POSITION TIME  TEMP    WIND        PRES    WAVE
                       AIR SEA DIR/SP/G            HT/PER
                 (UTC) (F)     (DEG/KT/KT) (MB)    (FT/S)
DEVILS ISLAND    2200   51     290/  3/  5 1028.1F
SAXON HARBOR     2230   41      50/  4/  5 1027.1S
$$

LMZ867-665-643>646-220000-
LAKE MICHIGAN

STATION/POSITION TIME  TEMP    WIND        PRES    WAVE
                       AIR SEA DIR/SP/G            HT/PER
                 (UTC) (F)     (DEG/KT/KT) (MB)    (FT/S)
NORTHPORT PIER   2240   50                 1027.8S
KEWAUNEE LAKESHO 2224   41     170/  9/ 11 1027.9
SHEBOYGAN LAKESH 2200   43     170/ 14/ 14 1029.1F
PORT WASHINGTON  2240   46     190/  1/  3 1029.5F
MILWAUKEE LAKESH 2230   43      30/  1/  2   N/A
KENOSHA   LAKESH 2200   41                 1028.4
$$

TC  - TEMPERATURE IN CELSIUS
VSB - VISIBILITY IN STATUTE MILES
WCI - WIND CHILL INDEX
HX  - HEAT INDEX





USA.gov is the U.S. government's official web portal to all federal, state and local government web resources and services.